Year,Month,Day,Hour,Minute,Value (Times are PST for temperature in C)
2019,03,10,00,00,-1.50
2019,03,10,00,01,-1.50
2019,03,10,00,02,-1.50
2019,03,10,00,03,-1.60
2019,03,10,00,05,-1.60
2019,03,10,00,06,-1.60
2019,03,10,00,07,-1.60
2019,03,10,00,08,-1.60
2019,03,10,00,09,-1.60
2019,03,10,00,10,-1.60
2019,03,10,00,12,-1.70
2019,03,10,00,14,-1.70
2019,03,10,00,15,-1.70
2019,03,10,00,17,-1.70
2019,03,10,00,18,-1.80
2019,03,10,00,19,-1.80
2019,03,10,00,21,-1.80
2019,03,10,00,22,-1.80
2019,03,10,00,23,-1.80
2019,03,10,00,24,-1.80
2019,03,10,00,26,-1.80
2019,03,10,00,27,-1.80
2019,03,10,00,28,-1.80
2019,03,10,00,29,-1.80
2019,03,10,00,31,-1.80
2019,03,10,00,32,-1.90
2019,03,10,00,34,-1.90
2019,03,10,00,35,-1.90
2019,03,10,00,37,-1.90
2019,03,10,00,38,-1.90
2019,03,10,00,40,-1.90
2019,03,10,00,41,-1.90
2019,03,10,00,42,-2.00
2019,03,10,00,44,-2.00
2019,03,10,00,45,-2.00
2019,03,10,00,47,-2.00
2019,03,10,00,48,-2.00
2019,03,10,00,49,-2.00
2019,03,10,00,50,-2.10
2019,03,10,00,52,-2.10
2019,03,10,00,53,-2.10
2019,03,10,00,54,-2.10
2019,03,10,00,55,-2.10
2019,03,10,00,56,-2.10
2019,03,10,00,58,-2.20
2019,03,10,00,59,-2.20
2019,03,10,01,00,-2.20
2019,03,10,01,01,-2.20
2019,03,10,01,02,-2.20
2019,03,10,01,04,-2.20
2019,03,10,01,06,-2.20
2019,03,10,01,07,-2.20
2019,03,10,01,08,-2.20
2019,03,10,01,09,-2.30
2019,03,10,01,10,-2.30
2019,03,10,01,11,-2.30
2019,03,10,01,12,-2.30
2019,03,10,01,13,-2.30
2019,03,10,01,14,-2.30
2019,03,10,01,15,-2.30
2019,03,10,01,16,-2.30
2019,03,10,01,18,-2.20
2019,03,10,01,19,-2.30
2019,03,10,01,20,-2.20
2019,03,10,01,21,-2.30
2019,03,10,01,23,-2.20
2019,03,10,01,25,-2.30
2019,03,10,01,27,-2.30
2019,03,10,01,28,-2.30
2019,03,10,01,29,-2.30
2019,03,10,01,31,-2.30
2019,03,10,01,32,-2.30
2019,03,10,01,33,-2.30
2019,03,10,01,34,-2.30
2019,03,10,01,35,-2.30
2019,03,10,01,37,-2.30
2019,03,10,01,38,-2.30
2019,03,10,01,39,-2.30
2019,03,10,01,40,-2.30
2019,03,10,01,41,-2.30
2019,03,10,01,42,-2.40
2019,03,10,01,43,-2.40
2019,03,10,01,44,-2.40
2019,03,10,01,45,-2.40
2019,03,10,01,47,-2.40
2019,03,10,01,48,-2.40
2019,03,10,01,49,-2.50
2019,03,10,01,50,-2.50
2019,03,10,01,51,-2.60
2019,03,10,01,53,-2.60
2019,03,10,01,54,-2.60
2019,03,10,01,56,-2.60
2019,03,10,01,58,-2.70
2019,03,10,01,59,-2.70
2019,03,10,03,00,-2.60
2019,03,10,03,03,-2.70
2019,03,10,03,05,-2.70
2019,03,10,03,06,-2.60
2019,03,10,03,07,-2.60
2019,03,10,03,08,-2.60
2019,03,10,03,09,-2.60
2019,03,10,03,11,-2.70
2019,03,10,03,12,-2.70
2019,03,10,03,13,-2.70
2019,03,10,03,14,-2.70
2019,03,10,03,15,-2.70
2019,03,10,03,17,-2.70
2019,03,10,03,18,-2.70
2019,03,10,03,20,-2.80
2019,03,10,03,21,-2.80
2019,03,10,03,22,-2.80
2019,03,10,03,23,-2.80
2019,03,10,03,24,-2.80
2019,03,10,03,26,-2.80
2019,03,10,03,27,-2.90
2019,03,10,03,30,-2.90
2019,03,10,03,31,-2.90
2019,03,10,03,33,-2.90
2019,03,10,03,34,-2.90
2019,03,10,03,35,-2.90
2019,03,10,03,36,-2.90
2019,03,10,03,38,-2.90
2019,03,10,03,40,-3.00
2019,03,10,03,42,-3.00
2019,03,10,03,43,-3.00
2019,03,10,03,44,-3.00
2019,03,10,03,45,-3.10
2019,03,10,03,46,-3.10
2019,03,10,03,48,-3.10
2019,03,10,03,49,-3.10
2019,03,10,03,50,-3.10
2019,03,10,03,51,-3.00
2019,03,10,03,52,-3.10
2019,03,10,03,54,-3.10
2019,03,10,03,55,-3.10
2019,03,10,03,56,-3.10
2019,03,10,03,58,-3.10
2019,03,10,03,59,-3.10
2019,03,10,04,00,-3.10
2019,03,10,04,01,-3.10
2019,03,10,04,02,-3.10
2019,03,10,04,03,-3.20
2019,03,10,04,05,-3.20
2019,03,10,04,06,-3.20
2019,03,10,04,08,-3.20
2019,03,10,04,09,-3.20
2019,03,10,04,10,-3.20
2019,03,10,04,12,-3.20
2019,03,10,04,13,-3.20
2019,03,10,04,14,-3.20
2019,03,10,04,15,-3.20
2019,03,10,04,16,-3.20
2019,03,10,04,17,-3.20
2019,03,10,04,18,-3.20
2019,03,10,04,20,-3.20
2019,03,10,04,21,-3.20
2019,03,10,04,22,-3.30
2019,03,10,04,23,-3.30
2019,03,10,04,24,-3.30
2019,03,10,04,25,-3.30
2019,03,10,04,26,-3.30
2019,03,10,04,28,-3.30
2019,03,10,04,29,-3.30
2019,03,10,04,31,-3.30
2019,03,10,04,32,-3.30
2019,03,10,04,33,-3.30
2019,03,10,04,35,-3.30
2019,03,10,04,36,-3.30
2019,03,10,04,38,-3.30
2019,03,10,04,39,-3.30
2019,03,10,04,40,-3.40
2019,03,10,04,43,-3.40
2019,03,10,04,44,-3.40
2019,03,10,04,45,-3.40
2019,03,10,04,46,-3.40
2019,03,10,04,47,-3.40
2019,03,10,04,48,-3.40
2019,03,10,04,49,-3.40
2019,03,10,04,50,-3.50
2019,03,10,04,52,-3.50
2019,03,10,04,53,-3.50
2019,03,10,04,54,-3.50
2019,03,10,04,56,-3.50
2019,03,10,04,57,-3.50
2019,03,10,04,58,-3.60
2019,03,10,04,59,-3.60
2019,03,10,05,00,-3.60
2019,03,10,05,01,-3.60
2019,03,10,05,02,-3.60
2019,03,10,05,03,-3.60
2019,03,10,05,04,-3.60
2019,03,10,05,05,-3.60
2019,03,10,05,06,-3.60
2019,03,10,05,07,-3.60
2019,03,10,05,08,-3.60
2019,03,10,05,09,-3.60
2019,03,10,05,10,-3.70
2019,03,10,05,11,-3.60
2019,03,10,05,13,-3.70
2019,03,10,05,14,-3.70
2019,03,10,05,15,-3.70
2019,03,10,05,18,-3.70
2019,03,10,05,19,-3.60
2019,03,10,05,20,-3.70
2019,03,10,05,21,-3.60
2019,03,10,05,22,-3.60
2019,03,10,05,24,-3.70
2019,03,10,05,25,-3.70
2019,03,10,05,27,-3.70
2019,03,10,05,28,-3.70
2019,03,10,05,29,-3.70
2019,03,10,05,32,-3.60
2019,03,10,05,33,-3.60
2019,03,10,05,34,-3.60
2019,03,10,05,35,-3.60
2019,03,10,05,37,-3.70
2019,03,10,05,38,-3.70
2019,03,10,05,39,-3.70
2019,03,10,05,40,-3.70
2019,03,10,05,41,-3.70
2019,03,10,05,42,-3.70
2019,03,10,05,44,-3.70
2019,03,10,05,45,-3.70
2019,03,10,05,47,-3.70
2019,03,10,05,48,-3.70
2019,03,10,05,49,-3.80
2019,03,10,05,50,-3.80
2019,03,10,05,51,-3.80
2019,03,10,05,53,-3.80
2019,03,10,05,56,-3.80
2019,03,10,05,57,-3.80
2019,03,10,05,59,-3.90
2019,03,10,06,01,-3.90
2019,03,10,06,03,-3.90
2019,03,10,06,05,-3.90
2019,03,10,06,07,-3.90
2019,03,10,06,08,-3.90
2019,03,10,06,09,-3.90
2019,03,10,06,10,-3.90
2019,03,10,06,11,-3.90
2019,03,10,06,12,-3.80
2019,03,10,06,13,-3.90
2019,03,10,06,14,-3.90
2019,03,10,06,15,-3.90
2019,03,10,06,17,-3.90
2019,03,10,06,19,-3.90
2019,03,10,06,20,-3.90
2019,03,10,06,22,-3.90
2019,03,10,06,24,-3.90
2019,03,10,06,25,-3.90
2019,03,10,06,27,-3.90
2019,03,10,06,28,-3.90
2019,03,10,06,29,-3.90
2019,03,10,06,30,-3.90
2019,03,10,06,33,-4.00
2019,03,10,06,36,-4.10
2019,03,10,06,38,-4.10
2019,03,10,06,39,-4.20
2019,03,10,06,41,-4.20
2019,03,10,06,42,-4.20
2019,03,10,06,43,-4.20
2019,03,10,06,44,-4.20
2019,03,10,06,45,-4.20
2019,03,10,06,46,-4.20
2019,03,10,06,47,-4.30
2019,03,10,06,48,-4.30
2019,03,10,06,51,-4.30
2019,03,10,06,52,-4.30
2019,03,10,06,53,-4.30
2019,03,10,06,55,-4.30
2019,03,10,06,57,-4.40
2019,03,10,06,59,-4.40
2019,03,10,07,00,-4.40
2019,03,10,07,01,-4.30
2019,03,10,07,03,-4.30
2019,03,10,07,05,-4.30
2019,03,10,07,07,-4.30
2019,03,10,07,08,-4.30
2019,03,10,07,11,-4.30
2019,03,10,07,12,-4.30
2019,03,10,07,13,-4.30
2019,03,10,07,14,-4.30
2019,03,10,07,16,-4.30
2019,03,10,07,17,-4.30
2019,03,10,07,19,-4.40
2019,03,10,07,20,-4.40
2019,03,10,07,22,-4.40
2019,03,10,07,25,-4.40
2019,03,10,07,26,-4.40
2019,03,10,07,28,-4.40
2019,03,10,07,31,-4.50
2019,03,10,07,32,-4.50
2019,03,10,07,33,-4.50
2019,03,10,07,34,-4.50
2019,03,10,07,35,-4.50
2019,03,10,07,37,-4.60
2019,03,10,07,38,-4.60
2019,03,10,07,39,-4.60
2019,03,10,07,42,-4.60
2019,03,10,07,43,-4.60
2019,03,10,07,46,-4.50
2019,03,10,07,47,-4.50
2019,03,10,07,48,-4.50
2019,03,10,07,49,-4.50
2019,03,10,07,52,-4.50
2019,03,10,07,54,-4.50
2019,03,10,07,55,-4.50
2019,03,10,07,57,-4.50
2019,03,10,07,58,-4.50
2019,03,10,08,00,-4.60
2019,03,10,08,02,-4.60
2019,03,10,08,03,-4.60
2019,03,10,08,04,-4.60
2019,03,10,08,05,-4.60
2019,03,10,08,07,-4.60
2019,03,10,08,08,-4.60
2019,03,10,08,09,-4.50
2019,03,10,08,11,-4.50
2019,03,10,08,12,-4.50
2019,03,10,08,13,-4.40
2019,03,10,08,14,-4.40
2019,03,10,08,16,-4.40
2019,03,10,08,17,-4.40
2019,03,10,08,18,-4.40
2019,03,10,08,19,-4.40
2019,03,10,08,20,-4.30
2019,03,10,08,22,-4.30
2019,03,10,08,25,-4.20
2019,03,10,08,26,-4.20
2019,03,10,08,27,-4.10
2019,03,10,08,28,-4.00
2019,03,10,08,30,-3.90
2019,03,10,08,32,-3.80
2019,03,10,08,33,-3.80
2019,03,10,08,34,-3.80
2019,03,10,08,35,-3.70
2019,03,10,08,36,-3.60
2019,03,10,08,37,-3.60
2019,03,10,08,38,-3.50
2019,03,10,08,40,-3.40
2019,03,10,08,41,-3.30
2019,03,10,08,43,-3.30
2019,03,10,08,44,-3.20
2019,03,10,08,45,-3.20
2019,03,10,08,46,-3.10
2019,03,10,08,48,-3.10
2019,03,10,08,49,-3.00
2019,03,10,08,50,-2.90
2019,03,10,08,51,-2.90
2019,03,10,08,52,-2.80
2019,03,10,08,53,-2.80
2019,03,10,08,54,-2.80
2019,03,10,08,56,-2.80
2019,03,10,08,57,-2.70
2019,03,10,08,58,-2.70
2019,03,10,08,59,-2.60
2019,03,10,09,00,-2.60
2019,03,10,09,02,-2.50
2019,03,10,09,03,-2.30
2019,03,10,09,05,-2.20
2019,03,10,09,07,-2.20
2019,03,10,09,08,-2.10
2019,03,10,09,09,-2.10
2019,03,10,09,10,-2.00
2019,03,10,09,12,-2.00
2019,03,10,09,13,-1.90
2019,03,10,09,14,-1.90
2019,03,10,09,16,-1.80
2019,03,10,09,18,-1.80
2019,03,10,09,19,-1.80
2019,03,10,09,21,-1.80
2019,03,10,09,23,-1.70
2019,03,10,09,24,-1.60
2019,03,10,09,25,-1.50
2019,03,10,09,26,-1.40
2019,03,10,09,27,-1.30
2019,03,10,09,28,-1.20
2019,03,10,09,30,-1.10
2019,03,10,09,32,-0.90
2019,03,10,09,35,-0.80
2019,03,10,09,36,-0.70
2019,03,10,09,37,-0.70
2019,03,10,09,39,-0.60
2019,03,10,09,41,-0.50
2019,03,10,09,43,-0.40
2019,03,10,09,44,-0.40
2019,03,10,09,45,-0.30
2019,03,10,09,47,-0.30
2019,03,10,09,48,-0.10
2019,03,10,09,49,-0.10
2019,03,10,09,51,0.20
2019,03,10,09,53,0.30
2019,03,10,09,54,0.40
2019,03,10,09,56,0.60
2019,03,10,09,58,0.70
2019,03,10,09,59,0.80
2019,03,10,10,02,0.80
2019,03,10,10,04,0.90
2019,03,10,10,05,1.00
2019,03,10,10,06,1.10
2019,03,10,10,07,1.10
2019,03,10,10,10,1.10
2019,03,10,10,11,1.00
2019,03,10,10,12,0.90
2019,03,10,10,13,0.90
2019,03,10,10,14,0.90
2019,03,10,10,17,0.90
2019,03,10,10,18,0.90
2019,03,10,10,19,0.90
2019,03,10,10,21,1.00
2019,03,10,10,23,1.20
2019,03,10,10,24,1.30
2019,03,10,10,26,1.30
2019,03,10,10,27,1.40
2019,03,10,10,29,1.60
2019,03,10,10,30,1.70
2019,03,10,10,31,1.70
2019,03,10,10,32,1.80
2019,03,10,10,33,1.80
2019,03,10,10,34,1.90
2019,03,10,10,36,1.90
2019,03,10,10,37,2.00
2019,03,10,10,38,1.90
2019,03,10,10,39,1.90
2019,03,10,10,40,1.90
2019,03,10,10,42,1.90
2019,03,10,10,43,2.00
2019,03,10,10,45,2.10
2019,03,10,10,47,2.20
2019,03,10,10,48,2.20
2019,03,10,10,50,2.30
2019,03,10,10,52,2.40
2019,03,10,10,53,2.60
2019,03,10,10,54,2.70
2019,03,10,10,56,2.80
2019,03,10,10,58,3.00
2019,03,10,10,59,3.10
2019,03,10,11,00,3.20
2019,03,10,11,01,3.30
2019,03,10,11,02,3.30
2019,03,10,11,03,3.20
2019,03,10,11,04,3.20
2019,03,10,11,06,3.20
2019,03,10,11,07,3.20
2019,03,10,11,09,3.30
2019,03,10,11,10,3.30
2019,03,10,11,12,3.40
2019,03,10,11,13,3.40
2019,03,10,11,15,3.40
2019,03,10,11,16,3.40
2019,03,10,11,17,3.40
2019,03,10,11,18,3.40
2019,03,10,11,20,3.40
2019,03,10,11,21,3.40
2019,03,10,11,22,3.40
2019,03,10,11,23,3.40
2019,03,10,11,25,3.60
2019,03,10,11,27,3.80
2019,03,10,11,28,3.90
2019,03,10,11,29,4.00
2019,03,10,11,31,4.20
2019,03,10,11,32,4.20
2019,03,10,11,34,4.20
2019,03,10,11,35,4.20
2019,03,10,11,38,4.20
2019,03,10,11,40,4.30
2019,03,10,11,42,4.50
2019,03,10,11,43,4.60
2019,03,10,11,44,4.70
2019,03,10,11,46,4.80
2019,03,10,11,47,4.90
2019,03,10,11,49,4.90
2019,03,10,11,51,5.10
2019,03,10,11,52,5.10
2019,03,10,11,53,5.10
2019,03,10,11,54,5.10
2019,03,10,11,55,5.20
2019,03,10,11,57,5.20
2019,03,10,11,59,5.40
2019,03,10,12,01,5.50
2019,03,10,12,02,5.70
2019,03,10,12,03,5.80
2019,03,10,12,04,5.90
2019,03,10,12,06,6.10
2019,03,10,12,07,6.10
2019,03,10,12,08,6.10
2019,03,10,12,09,6.10
2019,03,10,12,10,6.10
2019,03,10,12,12,6.20
2019,03,10,12,13,6.30
2019,03,10,12,14,6.40
2019,03,10,12,16,6.60
2019,03,10,12,18,6.60
2019,03,10,12,19,6.60
2019,03,10,12,20,6.60
2019,03,10,12,21,6.60
2019,03,10,12,23,6.60
2019,03,10,12,24,6.50
2019,03,10,12,25,6.50
2019,03,10,12,27,6.60
2019,03,10,12,29,6.70
2019,03,10,12,31,6.80
2019,03,10,12,32,6.80
2019,03,10,12,34,6.90
2019,03,10,12,35,6.90
2019,03,10,12,36,7.00
2019,03,10,12,37,7.10
2019,03,10,12,38,7.20
2019,03,10,12,40,7.30
2019,03,10,12,42,7.50
2019,03,10,12,43,7.60
2019,03,10,12,44,7.50
2019,03,10,12,45,7.50
2019,03,10,12,47,7.30
2019,03,10,12,48,7.30
2019,03,10,12,50,7.20
2019,03,10,12,52,7.20
2019,03,10,12,53,7.20
2019,03,10,12,54,7.20
2019,03,10,12,55,7.30
2019,03,10,12,56,7.30
2019,03,10,12,57,7.30
2019,03,10,12,59,7.40
2019,03,10,13,00,7.40
2019,03,10,13,02,7.30
2019,03,10,13,03,7.30
2019,03,10,13,04,7.30
2019,03,10,13,05,7.30
2019,03,10,13,06,7.20
2019,03,10,13,07,7.20
2019,03,10,13,08,7.20
2019,03,10,13,10,7.30
2019,03,10,13,11,7.30
2019,03,10,13,12,7.40
2019,03,10,13,13,7.40
2019,03,10,13,15,7.60
2019,03,10,13,16,7.70
2019,03,10,13,18,7.80
2019,03,10,13,19,7.90
2019,03,10,13,20,8.10
2019,03,10,13,21,8.20
2019,03,10,13,23,8.40
2019,03,10,13,24,8.50
2019,03,10,13,25,8.60
2019,03,10,13,26,8.70
2019,03,10,13,28,8.80
2019,03,10,13,30,8.90
2019,03,10,13,31,9.00
2019,03,10,13,32,9.00
2019,03,10,13,33,9.10
2019,03,10,13,35,9.00
2019,03,10,13,36,8.90
2019,03,10,13,37,8.90
2019,03,10,13,38,8.80
2019,03,10,13,39,8.70
2019,03,10,13,40,8.60
2019,03,10,13,42,8.40
2019,03,10,13,43,8.40
2019,03,10,13,45,8.40
2019,03,10,13,46,8.40
2019,03,10,13,47,8.40
2019,03,10,13,48,8.40
2019,03,10,13,50,8.40
2019,03,10,13,51,8.40
2019,03,10,13,53,8.60
2019,03,10,13,55,8.70
2019,03,10,13,57,8.80
2019,03,10,13,58,8.80
2019,03,10,14,00,8.90
2019,03,10,14,01,8.90
2019,03,10,14,02,8.90
2019,03,10,14,03,9.00
2019,03,10,14,05,9.10
2019,03,10,14,06,9.20
2019,03,10,14,07,9.30
2019,03,10,14,08,9.30
2019,03,10,14,09,9.40
2019,03,10,14,10,9.40
2019,03,10,14,11,9.50
2019,03,10,14,12,9.60
2019,03,10,14,14,9.60
2019,03,10,14,16,9.80
2019,03,10,14,19,9.80
2019,03,10,14,20,9.80
2019,03,10,14,21,9.80
2019,03,10,14,23,9.80
2019,03,10,14,25,9.80
2019,03,10,14,26,9.80
2019,03,10,14,27,9.80
2019,03,10,14,29,9.80
2019,03,10,14,31,9.70
2019,03,10,14,32,9.70
2019,03,10,14,33,9.70
2019,03,10,14,34,9.60
2019,03,10,14,35,9.70
2019,03,10,14,36,9.70
2019,03,10,14,37,9.70
2019,03,10,14,38,9.70
2019,03,10,14,40,9.70
2019,03,10,14,41,9.70
2019,03,10,14,42,9.70
2019,03,10,14,43,9.70
2019,03,10,14,45,9.70
2019,03,10,14,46,9.70
2019,03,10,14,47,9.70
2019,03,10,14,48,9.70
2019,03,10,14,49,9.70
2019,03,10,14,51,9.70
2019,03,10,14,53,9.80
2019,03,10,14,54,9.80
2019,03,10,14,56,9.90
2019,03,10,14,58,9.90
2019,03,10,15,00,10.10
2019,03,10,15,01,10.10
2019,03,10,15,03,10.10
2019,03,10,15,04,10.10
2019,03,10,15,06,10.10
2019,03,10,15,08,10.20
2019,03,10,15,10,10.20
2019,03,10,15,11,10.20
2019,03,10,15,12,10.20
2019,03,10,15,13,10.20
2019,03,10,15,14,10.20
2019,03,10,15,16,10.10
2019,03,10,15,17,10.10
2019,03,10,15,18,10.10
2019,03,10,15,20,10.00
2019,03,10,15,21,10.10
2019,03,10,15,22,10.00
2019,03,10,15,23,10.00
2019,03,10,15,24,10.10
2019,03,10,15,25,10.10
2019,03,10,15,26,10.20
2019,03,10,15,28,10.30
2019,03,10,15,30,10.30
2019,03,10,15,31,10.30
2019,03,10,15,32,10.30
2019,03,10,15,33,10.40
2019,03,10,15,34,10.40
2019,03,10,15,35,10.40
2019,03,10,15,36,10.40
2019,03,10,15,38,10.40
2019,03,10,15,39,10.40
2019,03,10,15,40,10.40
2019,03,10,15,41,10.40
2019,03,10,15,42,10.60
2019,03,10,15,43,10.60
2019,03,10,15,44,10.70
2019,03,10,15,45,10.70
2019,03,10,15,47,10.90
2019,03,10,15,49,11.00
2019,03,10,15,50,11.10
2019,03,10,15,52,11.30
2019,03,10,15,53,11.30
2019,03,10,15,54,11.30
2019,03,10,15,55,11.40
2019,03,10,15,56,11.40
2019,03,10,15,57,11.50
2019,03,10,15,58,11.50
2019,03,10,16,00,11.50
2019,03,10,16,01,11.50
2019,03,10,16,03,11.40
2019,03,10,16,04,11.30
2019,03,10,16,06,11.30
2019,03,10,16,07,11.40
2019,03,10,16,08,11.40
2019,03,10,16,09,11.40
2019,03,10,16,11,11.40
2019,03,10,16,12,11.50
2019,03,10,16,14,11.60
2019,03,10,16,15,11.60
2019,03,10,16,16,11.60
2019,03,10,16,17,11.60
2019,03,10,16,19,11.60
2019,03,10,16,21,11.60
2019,03,10,16,22,11.60
2019,03,10,16,24,11.60
2019,03,10,16,25,11.60
2019,03,10,16,26,11.60
2019,03,10,16,28,11.60
2019,03,10,16,30,11.70
2019,03,10,16,31,11.70
2019,03,10,16,33,11.70
2019,03,10,16,35,11.60
2019,03,10,16,36,11.60
2019,03,10,16,37,11.60
2019,03,10,16,38,11.60
2019,03,10,16,39,11.50
2019,03,10,16,41,11.30
2019,03,10,16,42,11.30
2019,03,10,16,43,11.30
2019,03,10,16,45,11.40
2019,03,10,16,46,11.40
2019,03,10,16,47,11.40
2019,03,10,16,48,11.40
2019,03,10,16,49,11.40
2019,03,10,16,51,11.30
2019,03,10,16,52,11.30
2019,03,10,16,53,11.30
2019,03,10,16,54,11.30
2019,03,10,16,55,11.20
2019,03,10,16,56,11.20
2019,03,10,16,57,11.10
2019,03,10,16,58,11.10
2019,03,10,16,59,11.00
2019,03,10,17,00,10.90
2019,03,10,17,01,10.80
2019,03,10,17,02,10.80
2019,03,10,17,03,10.80
2019,03,10,17,04,10.70
2019,03,10,17,05,10.70
2019,03,10,17,06,10.70
2019,03,10,17,07,10.70
2019,03,10,17,08,10.60
2019,03,10,17,09,10.70
2019,03,10,17,10,10.70
2019,03,10,17,11,10.70
2019,03,10,17,12,10.70
2019,03,10,17,13,10.70
2019,03,10,17,14,10.70
2019,03,10,17,15,10.70
2019,03,10,17,16,10.60
2019,03,10,17,17,10.60
2019,03,10,17,18,10.60
2019,03,10,17,19,10.60
2019,03,10,17,20,10.60
2019,03,10,17,21,10.60
2019,03,10,17,22,10.50
2019,03,10,17,23,10.50
2019,03,10,17,24,10.40
2019,03,10,17,25,10.40
2019,03,10,17,26,10.40
2019,03,10,17,27,10.40
2019,03,10,17,28,10.40
2019,03,10,17,29,10.40
2019,03,10,17,30,10.40
2019,03,10,17,31,10.30
2019,03,10,17,32,10.30
2019,03,10,17,33,10.30
2019,03,10,17,34,10.30
2019,03,10,17,35,10.30
2019,03,10,17,36,10.30
2019,03,10,17,37,10.20
2019,03,10,17,38,10.20
2019,03,10,17,39,10.20
2019,03,10,17,40,10.10
2019,03,10,17,41,10.10
2019,03,10,17,42,10.00
2019,03,10,17,43,9.90
2019,03,10,17,44,9.90
2019,03,10,17,45,9.90
2019,03,10,17,46,9.90
2019,03,10,17,47,9.80
2019,03,10,17,48,9.80
2019,03,10,17,49,9.80
2019,03,10,17,50,9.80
2019,03,10,17,51,9.80
2019,03,10,17,52,9.80
2019,03,10,17,53,9.80
2019,03,10,17,54,9.80
2019,03,10,17,55,9.70
2019,03,10,17,56,9.70
2019,03,10,17,57,9.70
2019,03,10,17,58,9.70
2019,03,10,17,59,9.60
2019,03,10,18,00,9.60
2019,03,10,18,01,9.60
2019,03,10,18,02,9.60
2019,03,10,18,03,9.60
2019,03,10,18,04,9.60
2019,03,10,18,05,9.50
2019,03,10,18,06,9.50
2019,03,10,18,07,9.50
2019,03,10,18,08,9.40
2019,03,10,18,09,9.40
2019,03,10,18,10,9.40
2019,03,10,18,11,9.40
2019,03,10,18,12,9.40
2019,03,10,18,13,9.40
2019,03,10,18,14,9.40
2019,03,10,18,15,9.40
2019,03,10,18,16,9.30
2019,03,10,18,18,9.30
2019,03,10,18,19,9.30
2019,03,10,18,20,9.30
2019,03,10,18,21,9.30
2019,03,10,18,22,9.30
2019,03,10,18,23,9.30
2019,03,10,18,24,9.30
2019,03,10,18,25,9.20
2019,03,10,18,26,9.20
2019,03,10,18,27,9.20
2019,03,10,18,28,9.20
2019,03,10,18,29,9.20
2019,03,10,18,30,9.20
2019,03,10,18,31,9.10
2019,03,10,18,32,9.10
2019,03,10,18,33,9.10
2019,03,10,18,34,9.10
2019,03,10,18,35,9.10
2019,03,10,18,36,9.10
2019,03,10,18,37,9.00
2019,03,10,18,38,9.00
2019,03,10,18,39,9.00
2019,03,10,18,40,8.90
2019,03,10,18,41,8.90
2019,03,10,18,42,8.90
2019,03,10,18,43,8.90
2019,03,10,18,44,8.90
2019,03,10,18,46,8.90
2019,03,10,18,47,8.90
2019,03,10,18,48,8.90
2019,03,10,18,49,8.80
2019,03,10,18,50,8.80
2019,03,10,18,51,8.80
2019,03,10,18,52,8.80
2019,03,10,18,53,8.80
2019,03,10,18,54,8.80
2019,03,10,18,55,8.80
2019,03,10,18,56,8.80
2019,03,10,18,57,8.70
2019,03,10,18,58,8.70
2019,03,10,18,59,8.70
2019,03,10,19,00,8.70
2019,03,10,19,01,8.70
2019,03,10,19,02,8.70
2019,03,10,19,03,8.60
2019,03,10,19,04,8.60
2019,03,10,19,05,8.60
2019,03,10,19,06,8.60
2019,03,10,19,07,8.60
2019,03,10,19,08,8.60
2019,03,10,19,09,8.60
2019,03,10,19,10,8.60
2019,03,10,19,11,8.60
2019,03,10,19,12,8.50
2019,03,10,19,13,8.50
2019,03,10,19,14,8.50
2019,03,10,19,15,8.40
2019,03,10,19,16,8.40
2019,03,10,19,17,8.40
2019,03,10,19,18,8.40
2019,03,10,19,19,8.40
2019,03,10,19,20,8.30
2019,03,10,19,21,8.30
2019,03,10,19,22,8.30
2019,03,10,19,23,8.30
2019,03,10,19,24,8.30
2019,03,10,19,25,8.30
2019,03,10,19,26,8.30
2019,03,10,19,27,8.30
2019,03,10,19,28,8.30
2019,03,10,19,29,8.30
2019,03,10,19,30,8.20
2019,03,10,19,31,8.20
2019,03,10,19,32,8.20
2019,03,10,19,33,8.20
2019,03,10,19,34,8.20
2019,03,10,19,35,8.20
2019,03,10,19,36,8.20
2019,03,10,19,37,8.20
2019,03,10,19,38,8.20
2019,03,10,19,39,8.20
2019,03,10,19,40,8.10
2019,03,10,19,41,8.10
2019,03,10,19,42,8.10
2019,03,10,19,43,8.10
2019,03,10,19,44,8.10
2019,03,10,19,45,8.10
2019,03,10,19,46,8.00
2019,03,10,19,47,8.00
2019,03,10,19,48,8.00
2019,03,10,19,49,7.90
2019,03,10,19,50,7.90
2019,03,10,19,51,7.90
2019,03,10,19,52,7.90
2019,03,10,19,53,7.90
2019,03,10,19,54,7.80
2019,03,10,19,55,7.80
2019,03,10,19,56,7.80
2019,03,10,19,57,7.80
2019,03,10,19,58,7.80
2019,03,10,19,59,7.80
2019,03,10,20,00,7.70
2019,03,10,20,01,7.70
2019,03,10,20,02,7.70
2019,03,10,20,03,7.70
2019,03,10,20,04,7.70
2019,03,10,20,05,7.70
2019,03,10,20,06,7.70
2019,03,10,20,07,7.60
2019,03,10,20,08,7.60
2019,03,10,20,09,7.60
2019,03,10,20,10,7.60
2019,03,10,20,11,7.60
2019,03,10,20,12,7.60
2019,03,10,20,13,7.50
2019,03,10,20,14,7.50
2019,03,10,20,15,7.40
2019,03,10,20,16,7.40
2019,03,10,20,17,7.40
2019,03,10,20,18,7.40
2019,03,10,20,19,7.40
2019,03,10,20,20,7.40
2019,03,10,20,21,7.40
2019,03,10,20,22,7.40
2019,03,10,20,23,7.40
2019,03,10,20,24,7.40
2019,03,10,20,25,7.30
2019,03,10,20,26,7.30
2019,03,10,20,27,7.30
2019,03,10,20,28,7.30
2019,03,10,20,29,7.30
2019,03,10,20,30,7.30
2019,03,10,20,31,7.30
2019,03,10,20,32,7.30
2019,03,10,20,33,7.30
2019,03,10,20,34,7.30
2019,03,10,20,35,7.20
2019,03,10,20,36,7.20
2019,03,10,20,37,7.20
2019,03,10,20,38,7.20
2019,03,10,20,39,7.20
2019,03,10,20,40,7.10
2019,03,10,20,41,7.10
2019,03,10,20,43,7.10
2019,03,10,20,44,7.10
2019,03,10,20,45,7.00
2019,03,10,20,46,7.00
2019,03,10,20,47,7.00
2019,03,10,20,48,7.00
2019,03,10,20,49,6.90
2019,03,10,20,50,6.90
2019,03,10,20,51,6.90
2019,03,10,20,52,6.90
2019,03,10,20,53,6.90
2019,03,10,20,54,6.90
2019,03,10,20,55,6.80
2019,03,10,20,56,6.80
2019,03,10,20,57,6.80
2019,03,10,20,58,6.80
2019,03,10,20,59,6.80
2019,03,10,21,00,6.80
2019,03,10,21,01,6.80
2019,03,10,21,02,6.80
2019,03,10,21,03,6.70
2019,03,10,21,04,6.70
2019,03,10,21,05,6.70
2019,03,10,21,06,6.70
2019,03,10,21,07,6.70
2019,03,10,21,08,6.70
2019,03,10,21,09,6.60
2019,03,10,21,10,6.60
2019,03,10,21,11,6.60
2019,03,10,21,12,6.60
2019,03,10,21,13,6.60
2019,03,10,21,14,6.60
2019,03,10,21,15,6.50
2019,03,10,21,17,6.40
2019,03,10,21,18,6.40
2019,03,10,21,19,6.40
2019,03,10,21,20,6.40
2019,03,10,21,21,6.40
2019,03,10,21,22,6.40
2019,03,10,21,23,6.40
2019,03,10,21,24,6.40
2019,03,10,21,25,6.40
2019,03,10,21,26,6.40
2019,03,10,21,27,6.40
2019,03,10,21,28,6.40
2019,03,10,21,29,6.40
2019,03,10,21,30,6.40
2019,03,10,21,31,6.40
2019,03,10,21,32,6.40
2019,03,10,21,33,6.40
2019,03,10,21,34,6.40
2019,03,10,21,35,6.40
2019,03,10,21,37,6.40
2019,03,10,21,38,6.40
2019,03,10,21,39,6.40
2019,03,10,21,40,6.40
2019,03,10,21,41,6.40
2019,03,10,21,42,6.40
2019,03,10,21,43,6.40
2019,03,10,21,44,6.40
2019,03,10,21,45,6.40
2019,03,10,21,46,6.40
2019,03,10,21,47,6.40
2019,03,10,21,48,6.40
2019,03,10,21,49,6.40
2019,03,10,21,50,6.40
2019,03,10,21,51,6.40
2019,03,10,21,52,6.30
2019,03,10,21,53,6.30
2019,03,10,21,54,6.30
2019,03,10,21,55,6.30
2019,03,10,21,56,6.30
2019,03,10,21,57,6.30
2019,03,10,21,58,6.20
2019,03,10,21,59,6.20
2019,03,10,22,00,6.20
2019,03,10,22,01,6.20
2019,03,10,22,02,6.20
2019,03,10,22,03,6.20
2019,03,10,22,04,6.20
2019,03,10,22,05,6.20
2019,03,10,22,06,6.20
2019,03,10,22,07,6.20
2019,03,10,22,08,6.20
2019,03,10,22,09,6.10
2019,03,10,22,10,6.10
2019,03,10,22,11,6.10
2019,03,10,22,12,6.10
2019,03,10,22,13,6.10
2019,03,10,22,14,6.10
2019,03,10,22,15,6.10
2019,03,10,22,16,6.00
2019,03,10,22,17,6.00
2019,03,10,22,18,6.00
2019,03,10,22,19,6.00
2019,03,10,22,20,5.90
2019,03,10,22,21,5.90
2019,03,10,22,22,5.90
2019,03,10,22,23,5.90
2019,03,10,22,24,5.90
2019,03,10,22,25,5.90
2019,03,10,22,26,5.90
2019,03,10,22,28,5.80
2019,03,10,22,29,5.80
2019,03,10,22,30,5.80
2019,03,10,22,31,5.70
2019,03,10,22,33,5.70
2019,03,10,22,34,5.70
2019,03,10,22,35,5.70
2019,03,10,22,36,5.70
2019,03,10,22,37,5.70
2019,03,10,22,38,5.70
2019,03,10,22,39,5.70
2019,03,10,22,40,5.70
2019,03,10,22,41,5.70
2019,03,10,22,42,5.70
2019,03,10,22,43,5.70
2019,03,10,22,44,5.70
2019,03,10,22,45,5.70
2019,03,10,22,46,5.70
2019,03,10,22,47,5.70
2019,03,10,22,48,5.70
2019,03,10,22,49,5.60
2019,03,10,22,50,5.60
2019,03,10,22,52,5.60
2019,03,10,22,53,5.60
2019,03,10,22,54,5.50
2019,03,10,22,55,5.50
2019,03,10,22,56,5.50
2019,03,10,22,57,5.40
2019,03,10,22,58,5.40
2019,03,10,23,00,5.30
2019,03,10,23,02,5.30
2019,03,10,23,04,5.30
2019,03,10,23,06,5.20
2019,03,10,23,07,5.20
2019,03,10,23,08,5.20
2019,03,10,23,09,5.20